Lid_Strength_Index
11 11 11 11 11 11 11 11 11 11 11 11 11 11 11 11 12 12 12 12 13 13 13 12 12 12 13 13 13 14 14 14 13 17 16 15 15 16 16 16 16 16 15
12 12 11 11 11 12 12 11 11 12 12 11 11 11 12 12 12 13 13 13 13 14 13 13 13 14 14 14 14 15 16 15 15 17 18 18 16 16 16 17 17 17 16
12 12 12 11 11 12 13 12 12 12 12 12 13 12 12 13 13 13 13 13 13 13 13 13 13 15 15 15 15 15 15 17 15 15 18 18 18 18 18 17 17 16 17
12 12 12 12 12 12 12 13 13 13 13 12 12 13 13 13 13 13 14 13 12 13 13 13 14 15 15 15 15 16 15 16 16 16 17 19 18 18 17 17 18 16 16
13 14 13 12 12 12 13 13 13 13 13 13 13 13 13 13 13 13 14 13 13 14 13 14 15 14 14 14 15 15 15 15 16 17 17 19 19 19 19 17 18 17 16
12 13 13 12 11 13 14 14 13 13 12 11 12 13 14 14 13 12 12 14 14 14 14 14 15 15 15 13 13 13 14 15 17 17 17 19 19 18 17 18 18 18 18
12 13 13 12 12 13 15 15 15 14 13 13 12 12 12 12 12 12 12 14 14 14 14 15 15 15 15 15 14 14 14 14 14 15 17 17 18 17 17 18 18 18 18
12 13 13 13 13 13 14 15 15 14 13 13 13 12 12 12 12 12 12 13 14 14 14 15 15 15 15 16 15 15 15 15 15 16 16 16 16 16 16 16 17 17 16
12 12 12 12 13 14 16 15 14 13 13 13 12 13 12 12 11 12 13 14 14 14 14 14 14 15 15 14 16 16 16 17 15 15 15 15 15 15 16 16 18 18 19
11 11 12 12 14 15 15 15 14 13 14 13 12 11 12 12 11 12 12 13 14 13 13 14 15 15 14 14 15 16 18 18 17 17 17 15 14 15 15 15 16 18 19
11 12 12 12 14 14 14 14 15 15 14 14 13 11 12 12 12 12 12 13 13 13 13 15 15 13 14 15 14 16 16 16 16 16 16 16 16 16 15 15 16 17 19
13 14 14 15 15 15 17 17 16 16 16 16 14 12 11 11 12 12 12 11 12 13 12 13 15 14 14 14 14 14 14 15 16 16 16 17 18 18 18 18 18 18 18
16 17 17 17 17 17 18 18 18 17 17 16 15 13 12 11 11 11 12 11 11 12 11 13 14 14 13 14 13 13 15 17 17 18 18 18 18 18 18 19 19 18 19
19 19 19 19 19 19 19 18 19 18 18 17 16 15 13 11 12 12 12 12 12 12 12 14 14 14 14 15 15 15 16 17 17 18 18 18 19 20 20 20 20 20 21
21 21 21 21 21 21 20 20 19 18 17 18 17 16 15 13 11 11 12 13 13 12 13 15 15 16 16 15 15 17 17 17 18 18 19 20 20 21 21 20 21 21 22
23 23 22 22 22 22 21 21 18 17 15 15 14 14 14 13 11 10 11 11 10 10 14 16 16 16 16 16 15 16 17 18 19 19 20 21 21 21 21 21 21 22 22
24 24 23 23 23 23 23 22 23 20 17 16 15 14 13 12 11 9 9 9 10 10 15 15 15 16 15 16 16 18 19 19 19 20 20 21 21 21 21 22 22 22 22
25 24 23 23 23 23 23 22 22 22 22 20 17 15 13 11 9 8 8 9 12 11 14 15 15 15 15 16 19 19 20 21 20 21 21 22 22 22 22 22 22 22 22
24 23 22 22 22 21 21 21 21 21 21 20 18 17 15 12 9 9 7 10 12 12 13 14 14 15 16 17 18 20 20 21 21 21 21 22 22 22 22 22 22 22 22
23 22 21 20 20 20 20 20 20 20 20 19 18 17 16 11 11 10 8 9 10 11 13 15 17 18 17 18 19 20 21 21 22 22 23 23 22 22 23 23 22 22 22
22 21 20 19 19 19 19 19 19 19 19 18 17 15 11 11 11 10 9 9 10 13 15 16 18 18 19 20 21 22 22 22 23 23 23 23 24 24 22 22 21 22 22
21 21 21 21 19 18 17 16 17 19 18 17 15 12 11 12 12 14 14 15 15 15 15 16 18 19 20 21 21 22 23 23 23 23 23 23 23 22 22 22 22 21 21
22 22 21 20 20 19 18 17 17 16 16 16 16 16 17 17 17 18 18 17 17 18 18 18 19 20 20 20 20 20 22 22 22 22 22 22 23 22 22 21 21 21 21
22 23 22 22 21 21 20 20 20 20 20 20 20 20 20 20 20 20 20 19 19 19 18 19 19 20 20 20 19 19 20 20 21 21 20 21 21 21 21 21 21 21 20
22 23 23 23 23 23 22 22 21 21 21 21 22 22 22 21 22 21 21 21 21 21 21 21 21 21 22 22 22 22 21 22 23 23 23 22 22 22 22 21 20 19 18
23 23 23 22 23 23 23 23 23 22 22 22 22 22 22 22 22 22 22 22 22 22 22 22 22 22 22 22 23 23 23 22 24 24 24 23 23 21 21 21 20 19 18